Terminal Aerodrome Forecast
Issued by NWS Milwaukee/Sullivan, WI

Home | Current Version | Previous Version | Text Only | Print | Product List | Glossary On
Versions: 1 2 3 4 5 6 7 8 9 10 11 12 13 14 15 16 17 18 19 20 21 22 23 24 25 26 27 28 29 30 31 32 33 34 35 36 37 38 39 40 41 42 43 44 45 46 47 48 49 50
000
FTUS43 KMKX 250320 AAA
TAFMKE
TAF AMD
KMKE 250320Z 2503/2606 18006KT P6SM SCT250
     FM251300 20008KT P6SM SCT100 BKN250
     FM251800 18012KT P6SM SCT050 BKN100
     FM252200 17010KT P6SM VCTS SCT040CB BKN070=

USA.gov is the U.S. government's official web portal to all federal, state and local government web resources and services.